RH
76 85 86 84 79 82 88 88 90 90 88 81 76 70 78 96 89 76 69 64 62 64 64 61 52 56 60 67 70 68 71 76 81 80 80 80 78 78 74 75 74 68 70
76 73 73 74 87 76 82 87 90 89 86 83 76 73 77 75 85 84 70 74 71 68 67 64 54 54 60 67 71 71 69 66 74 80 80 80 83 84 84 80 73 78 79
100 97 87 90 89 98 92 84 84 96 97 95 91 87 81 79 72 81 82 70 72 70 70 66 64 51 57 62 68 67 72 68 66 70 73 78 80 82 86 85 78 74 79
98 99 100 99 97 98 92 94 96 97 99 100 98 89 99 99 96 85 82 77 79 76 76 77 74 66 56 59 65 68 69 67 67 69 68 73 79 82 87 89 86 86 82
94 98 99 98 96 91 96 95 93 91 90 84 89 95 94 89 76 88 89 92 78 84 85 96 94 86 81 73 63 67 70 71 68 69 64 60 69 76 83 87 89 79 81
88 91 95 96 96 91 82 81 82 80 80 79 85 77 77 80 77 83 64 75 97 98 100 100 86 82 75 56 72 74 71 72 77 71 68 67 67 71 75 82 89 86 86
58 55 54 53 57 60 55 47 43 39 39 51 76 71 52 58 60 79 74 72 80 76 80 73 71 65 61 71 52 60 77 76 70 79 73 70 71 71 72 76 81 88 86
52 44 41 43 44 44 45 46 44 38 36 49 65 82 77 56 62 81 79 72 70 65 74 70 70 64 73 63 66 46 59 76 73 72 79 74 69 72 77 76 78 83 82
62 46 47 42 44 48 43 42 44 44 40 37 56 99 89 85 77 57 68 78 80 87 83 79 81 76 72 69 62 62 63 64 71 72 75 80 75 72 77 79 75 78 83
89 66 56 54 51 51 49 49 51 53 64 60 60 95 94 99 99 91 74 63 71 77 82 82 80 69 67 67 68 74 66 67 75 63 73 75 73 69 80 79 76 76 80
87 79 77 70 63 59 61 57 55 57 65 84 97 100 99 99 94 100 96 85 77 85 93 91 85 83 77 68 69 66 69 64 63 63 67 75 72 62 69 77 78 76 76
75 78 77 82 79 76 73 72 66 70 74 95 100 97 100 99 99 99 98 99 98 78 78 85 92 89 76 73 74 81 77 76 65 68 65 64 63 59 56 67 79 82 78
94 95 88 90 88 89 84 85 84 86 91 97 99 99 99 99 100 100 100 100 100 97 95 69 82 77 89 93 71 64 60 72 86 88 83 65 63 65 57 57 69 79 84
100 100 100 99 99 98 98 96 99 100 100 99 100 99 99 100 99 100 100 99 98 100 98 95 58 60 77 83 96 81 79 86 89 92 90 90 87 83 79 70 69 71 78
100 100 100 100 100 100 99 100 100 100 99 96 98 98 98 97 98 99 100 100 100 100 99 100 98 57 73 80 77 80 72 82 76 78 81 83 84 85 85 85 83 80 76
100 98 98 100 100 100 96 98 100 99 98 99 99 100 100 99 99 100 100 99 100 100 100 99 98 97 84 76 80 82 79 79 76 86 85 78 90 87 89 92 89 83 78
96 98 100 98 96 97 98 98 99 100 100 100 100 99 99 99 99 100 100 100 100 100 100 98 98 97 98 100 97 98 91 92 89 86 80 83 90 93 90 89 83 84 82
92 95 98 94 82 88 96 100 100 100 100 100 100 100 99 100 100 100 100 100 100 100 100 99 98 98 100 99 96 96 93 88 88 88 73 81 92 95 92 83 77 82 90
89 98 90 90 63 66 96 100 100 100 100 100 100 100 100 100 100 100 98 97 98 100 100 100 100 100 99 98 98 100 96 82 84 89 87 96 82 78 80 83 76 73 79
71 89 86 67 44 44 77 100 100 100 96 91 95 100 86 100 100 100 100 97 94 92 93 96 96 95 96 96 97 95 88 94 95 97 96 98 96 95 80 79 84 78 74
65 79 82 39 25 17 33 86 100 86 64 34 39 55 36 67 96 100 100 100 98 94 97 97 90 88 86 81 85 86 87 84 84 88 90 94 98 99 88 84 84 83 76
35 44 81 38 12 14 38 82 97 95 58 23 14 19 15 13 30 72 92 100 100 100 100 100 100 100 100 99 90 88 84 81 80 75 75 72 86 94 98 96 80 74 76
26 24 38 41 14 10 34 73 100 63 52 41 13 10 9 8 9 15 29 64 81 97 100 100 100 100 99 100 99 90 89 89 87 86 78 87 75 77 87 99 99 80 76
30 25 23 23 14 11 7 27 72 73 84 46 26 11 10 8 7 7 8 14 24 47 79 95 95 100 100 100 98 96 100 89 76 88 96 97 96 86 80 83 88 93 85
79 63 45 27 15 16 8 7 24 44 56 50 32 26 35 37 44 8 6 6 9 13 24 36 48 66 76 90 96 87 84 86 82 87 99 83 78 76 79 84 88 98 99
95 98 84 54 28 17 19 7 8 18 34 30 26 31 79 89 100 44 15 14 10 17 14 11 12 14 22 51 72 93 98 100 99 94 93 92 84 96 87 76 92 96 99
Wind_Speed
17 18 18 17 19 21 25 27 27 31 33 34 36 36 33 29 27 20 21 26 28 29 27 25 26 25 23 24 23 23 24 24 24 24 24 25 25 24 20 20 20 19 19
20 20 19 18 19 20 21 25 27 30 31 36 39 40 40 40 35 31 32 27 26 26 26 25 26 27 26 25 25 24 24 26 26 26 26 26 26 27 25 23 21 22 22
19 20 21 19 21 19 20 22 24 25 29 32 36 38 42 40 42 41 34 33 31 31 29 28 23 27 28 27 27 26 27 26 28 28 28 28 28 28 29 27 25 25 23
17 16 16 14 20 21 23 25 25 26 28 28 31 33 29 34 39 44 40 37 36 33 33 29 23 21 26 28 28 28 29 29 29 29 29 30 30 30 30 30 31 29 28
19 16 14 12 20 21 18 18 21 22 23 27 30 32 31 32 34 10 33 36 42 36 28 26 25 22 22 25 29 31 31 31 30 31 30 31 31 32 31 32 32 31 31
14 15 18 22 20 18 17 18 21 21 23 25 26 28 25 26 28 31 33 44 45 48 21 19 18 16 18 30 29 33 35 34 34 33 32 32 31 33 33 32 34 33 32
14 15 13 16 17 17 17 17 19 21 21 20 21 24 25 25 26 24 28 36 43 34 42 31 27 35 44 39 38 32 36 38 37 36 36 35 33 33 34 33 35 35 34
15 14 15 14 14 16 17 17 18 21 21 17 17 20 15 25 18 19 20 23 28 26 33 43 39 48 50 48 44 44 37 36 39 39 38 38 36 35 35 34 35 35 34
14 13 12 15 16 15 17 18 18 18 21 22 15 8 9 6 23 22 23 25 21 27 29 37 40 49 51 41 44 45 46 42 37 39 39 41 39 37 36 35 35 36 36
16 15 15 14 15 16 17 20 20 20 18 21 22 8 16 17 11 21 24 24 27 28 26 27 32 36 44 41 50 46 49 41 38 33 38 43 41 39 38 37 36 36 37
15 20 17 17 17 16 18 20 21 21 20 18 18 20 19 20 20 21 29 24 26 20 19 24 29 26 27 33 44 46 48 57 55 48 39 38 41 40 41 40 39 37 37
18 18 17 17 16 16 17 18 20 20 19 16 15 15 16 14 17 18 25 32 35 38 30 19 19 30 30 28 26 27 29 37 44 47 49 43 41 38 41 41 41 40 39
16 19 17 16 16 15 17 18 18 17 16 16 16 17 18 18 20 23 26 29 31 36 35 36 26 19 26 36 31 28 28 27 31 36 40 46 44 43 43 41 41 41 42
13 17 15 14 15 14 15 16 14 13 15 15 17 19 20 21 21 20 20 22 33 33 38 34 34 34 25 34 26 25 28 28 29 37 40 41 42 43 45 44 43 43 45
12 13 14 14 14 12 13 13 13 14 14 15 16 17 19 21 22 24 24 23 22 24 35 28 32 30 26 26 22 22 28 25 31 30 33 35 37 40 42 45 46 47 46
14 15 15 15 14 13 14 16 14 15 14 13 12 13 14 16 17 19 21 23 23 24 29 29 32 29 30 32 28 29 22 34 35 28 33 33 36 37 38 40 43 45 50
15 17 18 18 17 15 18 21 19 17 17 17 17 17 16 15 14 12 12 12 14 18 26 34 33 32 31 29 27 29 26 25 22 30 29 30 35 35 35 36 40 43 48
16 18 18 19 16 14 15 18 16 18 18 19 21 21 19 17 18 17 15 14 13 13 17 22 23 26 30 27 31 33 29 26 27 30 35 33 33 36 36 33 36 39 45
11 12 13 15 18 16 11 16 16 16 16 16 18 21 22 21 22 22 21 20 18 16 14 14 15 14 19 25 27 27 30 31 31 32 31 30 34 35 34 34 31 32 36
9 11 12 12 16 16 12 14 15 13 15 15 16 18 22 20 23 25 24 24 22 21 20 18 17 16 16 16 19 24 30 26 26 25 29 27 30 33 38 40 39 39 41
8 9 11 13 13 15 14 15 16 17 17 18 17 17 21 21 16 19 21 24 25 25 25 25 24 24 25 24 25 23 25 28 31 25 25 26 23 29 35 36 37 40 43
8 7 10 13 17 17 13 15 13 12 16 19 23 20 20 21 21 20 19 19 21 24 26 27 27 28 28 28 27 28 29 32 34 26 30 35 31 31 32 38 38 36 39
11 13 11 13 18 19 13 14 17 16 18 19 23 23 24 24 23 22 21 19 19 19 21 23 24 24 26 28 28 29 28 28 28 26 30 35 28 34 33 36 39 40 38
12 13 16 15 17 19 17 12 13 15 16 19 21 23 24 25 25 24 22 20 20 21 21 21 20 20 21 22 24 25 26 27 22 21 22 32 31 35 34 36 35 35 38
12 14 15 16 19 19 19 18 13 14 15 17 19 23 26 27 27 24 23 22 20 20 20 18 18 17 16 18 22 23 28 31 32 22 17 31 31 38 35 32 33 37 41
12 12 14 16 16 17 19 18 18 16 17 19 19 21 25 26 27 27 27 27 27 26 22 19 18 19 19 19 21 23 24 26 28 21 32 37 35 37 28 24 19 24 28
Wind_Direction
259 258 263 264 267 267 262 259 249 246 248 247 245 242 228 238 241 235 230 238 241 245 252 256 243 237 235 227 227 225 223 224 227 227 226 226 224 226 231 231 225 225 223
256 257 263 268 263 264 265 265 262 258 253 250 248 245 239 229 225 228 230 242 243 241 245 256 250 238 236 233 231 231 227 227 227 230 229 229 229 227 229 232 229 227 229
254 259 267 264 269 275 275 271 271 267 264 262 260 260 251 242 234 234 228 233 250 253 251 250 251 244 237 237 235 235 235 233 231 231 231 230 230 230 229 230 229 231 233
270 273 274 286 276 276 277 281 281 283 282 280 281 277 266 267 266 245 238 234 234 246 253 246 246 256 248 242 240 239 239 238 236 233 231 231 231 232 232 231 232 235 235
272 269 270 264 267 268 277 280 277 275 283 283 285 286 287 288 277 208 259 251 246 240 247 236 234 232 239 247 250 244 241 241 238 236 235 232 232 232 232 234 234 237 239
290 272 269 265 263 263 255 255 263 268 275 286 297 299 300 291 287 273 260 259 263 239 230 199 215 240 252 258 249 249 246 241 240 238 238 236 233 233 234 233 232 236 241
303 293 287 286 284 281 279 281 283 283 283 286 289 287 291 298 281 283 280 279 278 278 272 271 265 249 242 245 242 248 250 246 244 239 239 238 236 234 235 235 234 235 235
317 319 313 305 306 301 297 294 294 295 294 295 295 301 306 306 317 305 302 294 291 274 256 246 259 244 249 262 246 237 251 246 248 246 241 240 237 236 236 237 237 236 236
338 335 340 331 328 323 312 306 303 301 302 302 299 292 321 297 294 280 290 301 303 284 276 263 260 250 250 258 242 244 242 249 249 248 245 243 240 239 237 238 237 238 236
321 317 332 338 336 330 321 314 310 306 305 303 305 292 246 277 309 305 289 275 287 290 290 282 275 265 256 251 253 259 249 244 247 248 247 245 243 241 239 238 237 239 238
293 298 309 313 316 321 321 316 311 308 307 305 303 306 305 303 283 293 292 295 274 269 279 283 279 278 278 269 262 259 249 248 252 256 245 246 242 241 243 239 237 238 239
312 308 309 308 307 312 315 318 314 308 305 305 307 300 296 297 290 294 293 289 285 277 272 268 281 281 276 279 273 268 268 259 255 250 248 247 247 244 242 241 239 238 239
339 333 333 325 319 320 316 316 313 308 305 296 293 292 287 280 280 283 281 287 293 291 285 266 267 276 290 265 262 269 273 269 255 248 243 243 247 251 244 245 243 242 242
353 347 348 350 346 342 337 327 319 314 313 306 306 299 295 283 275 278 282 291 293 291 292 288 267 265 296 303 262 271 274 265 259 251 247 245 246 247 246 244 245 244 245
2 4 9 8 5 1 358 352 348 340 335 331 318 307 296 291 285 279 278 275 282 295 293 294 294 269 271 289 299 294 282 276 260 263 256 253 253 252 251 251 251 245 244
26 29 28 20 19 26 25 16 9 6 2 0 348 337 328 319 306 293 285 279 274 280 285 284 284 293 287 283 290 289 278 286 267 264 258 262 250 254 256 253 250 248 242
31 33 24 17 24 42 50 33 26 26 33 33 28 19 10 0 349 330 316 299 285 280 285 284 284 278 282 289 291 290 278 280 282 262 261 261 254 253 259 259 253 249 244
26 26 19 7 19 37 50 49 22 27 27 32 30 22 25 24 23 17 6 353 332 316 308 309 301 286 276 283 279 285 282 272 278 284 272 269 259 260 259 260 253 251 245
44 22 13 9 14 33 46 49 25 26 27 32 36 19 25 28 30 25 24 20 13 2 351 341 330 314 293 283 276 276 281 275 273 272 274 276 271 265 261 263 259 253 253
38 35 8 14 15 28 50 52 30 19 32 28 40 25 24 33 30 25 22 23 23 23 21 14 4 357 347 330 309 294 277 271 279 278 272 278 278 269 268 266 266 262 258
47 54 15 19 22 27 37 48 36 19 29 31 37 37 28 36 40 39 22 22 22 26 28 25 20 15 8 359 356 340 324 303 291 297 283 271 279 276 273 272 271 268 263
37 51 54 26 31 33 41 58 44 34 30 33 34 36 34 36 37 40 38 34 29 27 29 25 17 14 11 7 2 356 345 340 330 317 300 270 267 265 277 279 277 274 267
48 53 56 44 39 40 48 57 33 37 33 29 32 31 32 32 34 36 38 35 39 41 40 33 25 18 9 5 358 358 356 348 344 334 311 306 296 283 269 266 273 276 276
52 51 48 42 39 41 44 40 59 37 34 28 25 28 28 28 27 26 28 33 37 36 36 35 28 23 19 11 8 5 355 351 356 350 326 323 321 299 288 266 265 272 274
53 44 40 36 37 35 37 44 42 51 40 31 26 25 24 24 21 23 21 27 30 35 37 34 32 25 19 18 12 1 5 5 357 4 347 343 338 324 312 301 276 265 266
63 43 31 30 31 33 32 34 39 38 40 33 30 28 28 24 20 21 20 21 24 20 19 20 20 22 21 21 25 23 16 15 9 355 347 347 348 351 335 324 306 296 279